Weather History for Rexburg, ID

Change the Weather History Date:

Sunday, June 2, 2013

  Actual Average Record
Temperature  
Mean Temperature 62 °F 57 °F  
Max Temperature 81 °F 71 °F 83 °F (2012)
Min Temperature 42 °F 43 °F 33 °F (2005)
Degree Days  
Heating Degree Days 3 8  
Month to date heating degree days 15 17  
Since 1 June heating degree days 15 17  
Since 1 July heating degree days 7699 7975  
Cooling Degree Days 0 0  
Month to date cooling degree days 0 0  
Year to date cooling degree days 2 4  
Since 1 June cooling degree days 0 0  
Growing Degree Days 12 (Base 50)    
Moisture  
Dew Point 37 °F    
Average Humidity 49    
Maximum Humidity 83    
Minimum Humidity 15    
Precipitation  
Precipitation 0.00 in 0.07 in 0.44 in (1999)
Month to date precipitation 0.00 0.14  
Year to date precipitation 4.25 6.01  
Sea Level Pressure  
Sea Level Pressure 29.77 in    
Wind  
Wind Speed 9 mph (West)    
Max Wind Speed 26 mph    
Max Gust Speed 37 mph    
Visibility 10 miles    
Events      
T = Trace of Precipitation, MM = Missing Value Source: NWS Daily Summary

Daily Weather History Graph

Daily Weather History Graph

Search for Another Location

Airport:

Trip Planner

Search our weather history database for the weather conditions in past years. The results will help you decide how hot, cold, wet, or windy it might be!

Date:

Astronomy

Jun. 02, 2013 Rise Set
Actual Time 5:47 AM MDT 9:03 PM MDT
Civil Twilight 5:12 AM MDT 9:39 PM MDT
Nautical Twilight 4:26 AM MDT 10:24 PM MDT
Astronomical Twilight 3:30 AM MDT 11:21 PM MDT
Moon 2:26 AM MDT (6/2) 3:28 PM MDT (6/2)
Length of Visible Light 16h 27m
Length of Day
15h 16m
Waning Crescent, 30% of the Moon is Illuminated
Jun 2
Waning Crescent
Jun 8
New
Jun 16
First Quarter
Jun 23
Full
Jun 29
Last Quarter

Hourly Weather History & Observations

Time (MDT) Temp. Windchill Dew Point Humidity Pressure Visibility Wind Dir Wind Speed Gust Speed Precip Events Conditions
12:53 AM 48.0 °F - 39.9 °F 74% 29.97 in 10.0 mi Calm Calm - N/A   Clear
1:53 AM 46.9 °F - 41.0 °F 80% 29.96 in 10.0 mi Calm Calm - N/A   Clear
2:53 AM 46.9 °F - 41.0 °F 80% 29.94 in 10.0 mi NNE 3.5 mph - N/A   Clear
3:53 AM 45.0 °F 43.5 °F 39.9 °F 82% 29.93 in 10.0 mi NE 3.5 mph - N/A   Clear
4:53 AM 44.1 °F - 39.9 °F 85% 29.91 in 10.0 mi Calm Calm - N/A   Clear
5:53 AM 42.1 °F - 37.9 °F 85% 29.92 in 10.0 mi Calm Calm - N/A   Clear
6:53 AM 44.1 °F 42.5 °F 37.9 °F 79% 29.92 in 10.0 mi NE 3.5 mph - N/A   Clear
7:53 AM 48.0 °F - 41.0 °F 77% 29.91 in 10.0 mi NE 5.8 mph - N/A   Clear
8:53 AM 55.0 °F - 44.1 °F 67% 29.88 in 10.0 mi ENE 3.5 mph - N/A   Clear
9:53 AM 62.1 °F - 39.9 °F 44% 29.83 in 10.0 mi Variable 4.6 mph - N/A   Clear
10:53 AM 68.0 °F - 37.9 °F 33% 29.80 in 10.0 mi Variable 3.5 mph - N/A   Clear
11:53 AM 73.0 °F - 37.0 °F 27% 29.76 in 10.0 mi SW 9.2 mph - N/A   Clear
12:53 PM 75.9 °F - 36.0 °F 23% 29.73 in 10.0 mi WSW 13.8 mph 19.6 mph N/A   Clear
1:53 PM 78.1 °F - 32.0 °F 19% 29.69 in 10.0 mi SW 15.0 mph - N/A   Clear
2:53 PM 80.1 °F - 32.0 °F 17% 29.65 in 10.0 mi SSW 20.7 mph 33.4 mph N/A   Scattered Clouds
3:53 PM 81.0 °F - 30.9 °F 16% 29.62 in 10.0 mi SW 21.9 mph 33.4 mph N/A   Clear
4:53 PM 81.0 °F - 28.9 °F 15% 29.60 in 10.0 mi WSW 21.9 mph 33.4 mph N/A   Clear
5:53 PM 77.0 °F - 34.0 °F 21% 29.59 in 10.0 mi SW 13.8 mph 24.2 mph N/A   Mostly Cloudy
6:53 PM 73.9 °F - 36.0 °F 25% 29.58 in 10.0 mi SW 16.1 mph - N/A   Partly Cloudy
7:53 PM 72.0 °F - 36.0 °F 27% 29.58 in 10.0 mi WSW 15.0 mph 20.7 mph N/A   Mostly Cloudy
8:53 PM 66.0 °F - 39.9 °F 38% 29.62 in 10.0 mi WNW 11.5 mph 17.3 mph N/A   Overcast
9:53 PM 60.1 °F - 43.0 °F 53% 29.68 in 10.0 mi NNW 4.6 mph - N/A   Overcast
10:53 PM 54.0 °F - 37.9 °F 55% 29.74 in 10.0 mi NW 8.1 mph - N/A   Scattered Clouds
11:53 PM 52.0 °F - 36.0 °F 54% 29.76 in 10.0 mi WNW 4.6 mph - N/A   Mostly Cloudy